星链-35920(STARLINK-35920)

导读 | 豆包AI

STARLINK-35920是美国SpaceX公司星链(Starlink)星座的成员卫星,于2025年11月23日发射。星链项目旨在构建全球覆盖的低轨卫星互联网系统,为地面偏远地区、航空航海场景提供高速宽带服务。截至2025年,SpaceX已完成超300次星链专属发射,STARLINK-35920的入轨进一步完善了星链星座网络布局,助力全球卫星互联网服务覆盖能力提升。

基本信息
目录编号:
66623
目录名称:
STARLINK-35920
国际标识:
2025-271G
轨道中心:
EARTH
卫星名称:
星链-35920
卫星全名:
星链-35920(STARLINK-35920)
卫星状态:
在轨 (已飞行111 天)
发射日期:
2025-11-23 UTC
国别 :
美国 (US)
星等 :
--
轨道信息
数据来源 国际轨道数据
星历时间: 2026-03-13T20:23:50+0800
17小时前
查看轨道信息
半长轴: 6853.335km
偏心率: 0.0001453
轨道倾角: 53.159°
近地点辐角 94.619°
升交点赤经 122.086°
平近点角 265.497°
近地点: 474.202km
远地点: 476.194km
周期: 94.105分钟
每日圈数: 15.302058
详细信息
固有亮度:
5
最大亮度:
2.5
卫星平台:
Starlink V1.0
覆盖范围:
全球
运营商:
太空探索技术公司
运营商所在国:
美国
制造商(研发单位):
太空探索技术公司
制造商所在国:
美国
使用方式:
暂无
卫星简介
Starlink 计划是 SpaceX 推出的全球卫星互联网项目,通过发射低轨道卫星,为全球尤其是偏远地区提供高速、低延迟的互联网服务。自 2019 年起,Starlink 已部署数千颗卫星,旨在缩小全球数字鸿沟,推动互联网普及。该项目还为军事、航空等行业提供通信支持,带来广泛经济效益。
2D轨道图
3D轨道图
轨道高度分析图
轨道倾角分析图
轨道综合分析图
查看轨道综合分析图